Weather History for KPMD - April, 2013

Change the Weather History Date:

Friday, April 12, 2013

  Actual Average Record
Temperature  
Mean Temperature 66 °F 57 °F  
Max Temperature 84 °F 71 °F 92 °F (1934)
Min Temperature 48 °F 42 °F 28 °F (1953)
Degree Days  
Heating Degree Days 0 9  
Month to date heating degree days 47 116  
Since 1 July heating degree days 2457 2737  
Cooling Degree Days 1 0  
Month to date cooling degree days 6 0  
Year to date cooling degree days 13 2  
Growing Degree Days 15 (Base 50)    
Moisture  
Dew Point 35 °F    
Average Humidity 38    
Maximum Humidity 66    
Minimum Humidity 10    
Precipitation  
Precipitation 0.00 in 0.02 in 0.91 in (1956)
Month to date precipitation 0.00 0.20  
Year to date precipitation 0.71 4.71  
Since 1 July precipitation 1.00  
Snow  
Snow 0.00 in - T in (1956)
Month to date snowfall 0.0  
Since 1 July snowfall 0.0  
Snow Depth 0.00 in    
Sea Level Pressure  
Sea Level Pressure 29.79 in    
Wind  
Wind Speed 6 mph (WSW)    
Max Wind Speed 24 mph    
Max Gust Speed 29 mph    
Visibility 10 miles    
Events      
T = Trace of Precipitation, MM = Missing Value Source: NWS Daily Summary

Daily Weather History Graph

Daily Weather History Graph

Search for Another Location

Airport or City:

Trip Planner

Search our weather history database for the weather conditions in past years. The results will help you decide how hot, cold, wet, or windy it might be!

Date:

Astronomy

Apr. 12, 2013 Rise Set
Actual Time 6:24 AM PDT 7:22 PM PDT
Civil Twilight 5:58 AM PDT 7:48 PM PDT
Nautical Twilight 5:27 AM PDT 8:18 PM PDT
Astronomical Twilight 4:56 AM PDT 8:50 PM PDT
Moon 7:42 AM PDT (4/12) 9:51 PM PDT (4/12)
Length of Visible Light 13h 49m
Length of Day
12h 58m
Waxing Crescent, 6% of the Moon is Illuminated
Apr 12
Waxing Crescent
Apr 18
First Quarter
Apr 25
Full
May 2
Last Quarter
May 9
New

Hourly Weather History & Observations

Time (PDT) Temp. Dew Point Humidity Pressure Visibility Wind Dir Wind Speed Gust Speed Precip Events Conditions
12:53 AM 57.0 °F 39.0 °F 51% 29.78 in 10.0 mi Calm Calm - N/A   Clear
1:53 AM 55.9 °F 39.9 °F 55% 29.77 in 10.0 mi Calm Calm - N/A   Clear
2:53 AM 53.1 °F 37.9 °F 57% 29.77 in 10.0 mi SSW 5.8 mph - N/A   Clear
3:53 AM 51.1 °F 37.9 °F 61% 29.77 in 10.0 mi South 5.8 mph - N/A   Clear
4:53 AM 50.0 °F 37.9 °F 63% 29.76 in 10.0 mi South 6.9 mph - N/A   Clear
5:53 AM 51.1 °F 37.9 °F 61% 29.77 in 10.0 mi SW 3.5 mph - N/A   Clear
6:53 AM 48.9 °F 37.0 °F 64% 29.80 in 10.0 mi SW 3.5 mph - N/A   Clear
7:53 AM 57.0 °F 37.9 °F 49% 29.82 in 10.0 mi Calm Calm - N/A   Clear
8:53 AM 62.1 °F 39.9 °F 44% 29.84 in 10.0 mi Calm Calm - N/A   Clear
9:53 AM 66.9 °F 41.0 °F 39% 29.85 in 10.0 mi Calm Calm - N/A   Clear
10:53 AM 72.0 °F 39.9 °F 31% 29.85 in 10.0 mi Calm Calm - N/A   Clear
11:53 AM 75.0 °F 36.0 °F 24% 29.84 in 10.0 mi Variable 5.8 mph - N/A   Clear
12:53 PM 78.1 °F 33.1 °F 19% 29.81 in 10.0 mi NNE 4.6 mph - N/A   Clear
1:53 PM 81.0 °F 30.0 °F 16% 29.79 in 10.0 mi NE 4.6 mph - N/A   Clear
2:53 PM 82.0 °F 28.0 °F 14% 29.76 in 10.0 mi Variable 4.6 mph - N/A   Clear
3:53 PM 82.0 °F 21.9 °F 11% 29.75 in 10.0 mi NNW 6.9 mph - N/A   Clear
4:53 PM 82.9 °F 23.0 °F 11% 29.73 in 10.0 mi NNW 8.1 mph - N/A   Clear
5:53 PM 80.1 °F 39.0 °F 23% 29.73 in 10.0 mi WSW 24.2 mph 28.8 mph N/A   Clear
6:53 PM 75.9 °F 32.0 °F 20% 29.76 in 10.0 mi WSW 18.4 mph - N/A   Clear
7:53 PM 72.0 °F 37.9 °F 29% 29.78 in 10.0 mi WSW 10.4 mph - N/A   Clear
8:53 PM 70.0 °F 36.0 °F 29% 29.80 in 10.0 mi WSW 11.5 mph - N/A   Clear
9:53 PM 66.9 °F 36.0 °F 32% 29.82 in 10.0 mi West 5.8 mph - N/A   Clear
10:53 PM 66.0 °F 36.0 °F 33% 29.82 in 10.0 mi SSW 6.9 mph - N/A   Clear
11:53 PM 63.0 °F 36.0 °F 37% 29.83 in 10.0 mi SSW 4.6 mph - N/A   Clear